Presure
209 203 227 243 244 168 180 135 260 175 179 157 249 261 255 434 114 167 121 187 189 194 184 173 184 122 189 182 172 184 163 165 153 154 138 150 151 151
197 192 232 234 246 252 246 149 128 146 206 179 206 151 202 293 121 196 186 135 184 167 192 182 168 184 176 170 160 168 169 168 156 162 143 144 141 146
247 157 222 251 242 249 241 266 131 139 131 203 213 254 266 316 162 166 192 190 184 182 195 184 175 172 152 186 159 167 175 177 164 161 163 176 167 151
241 202 246 256 234 242 203 259 263 137 187 134 224 148 250 198 237 210 183 136 182 187 190 182 181 173 192 159 179 156 181 172 157 169 179 150 160 149
250 258 238 240 236 259 259 296 256 198 159 142 140 243 247 219 394 241 188 192 185 179 188 186 178 172 185 174 156 159 172 180 172 160 173 169 168 121
288 321 278 264 262 256 288 255 351 126 229 125 187 242 285 266 412 403 204 191 166 182 182 186 180 177 178 173 168 191 176 164 161 172 179 175 181 142
293 404 406 410 415 415 414 406 403 353 124 340 223 269 242 297 399 207 183 199 190 182 183 186 179 173 166 179 168 170 183 151 175 160 180 156 168 147
358 333 306 347 349 353 434 428 415 411 402 379 251 240 260 242 391 322 267 200 193 171 180 180 191 182 179 181 166 194 177 167 169 136 145 143 123 135
336 333 332 331 330 336 337 344 347 417 408 393 379 298 262 252 384 409 240 205 128 192 180 184 185 185 182 189 195 164 172 163 142 169 147 170 163 135
517 478 452 481 462 345 360 318 340 341 416 407 389 236 249 251 269 238 245 209 197 189 193 185 190 190 186 176 181 177 187 159 151 162 144 147 160 162
476 478 478 461 492 505 483 456 522 338 399 411 394 245 247 254 370 393 319 195 147 182 191 182 186 190 186 190 172 191 181 177 180 171 141 162 179 152
449 453 458 461 462 468 477 500 517 437 305 289 412 374 353 366 277 385 370 215 204 199 181 193 185 181 188 183 182 189 172 169 184 147 175 194 204 154
425 426 433 443 450 462 463 480 495 500 484 334 417 390 359 369 360 385 353 201 202 201 185 180 183 191 192 182 185 183 175 174 182 189 198 176 178 180
421 420 426 432 440 450 460 474 404 496 512 528 436 409 367 374 306 308 347 236 207 201 192 188 192 188 188 184 181 186 194 176 189 171 157 199 143 164
443 440 438 439 445 457 462 471 448 144 532 531 539 412 377 375 306 223 366 222 228 214 203 191 197 193 194 185 187 184 184 181 186 170 178 152 168 161
421 423 426 431 440 451 404 472 155 525 530 127 471 495 257 379 352 353 353 233 220 211 199 203 199 200 195 193 192 180 177 165 187 203 191 149 149 183
427 432 436 441 441 451 382 434 157 501 516 125 219 531 419 388 363 379 332 242 227 221 213 209 209 198 174 189 191 194 191 180 199 182 181 153 166 131
435 438 441 446 453 461 469 478 492 435 392 508 517 480 424 261 367 315 329 265 218 228 220 213 213 203 185 193 191 199 191 188 177 180 176 157 149 132
138 445 450 457 460 462 468 480 494 496 350 352 515 510 419 385 376 301 350 276 236 234 212 192 205 202 199 199 189 180 181 176 173 185 182 155 161 183
445 457 465 468 471 472 437 480 488 495 380 511 408 401 414 388 374 362 353 298 250 214 225 214 206 215 205 201 197 194 200 180 178 176 174 152 179 156
450 455 463 474 482 487 488 488 487 495 357 352 531 477 411 389 370 393 344 303 264 233 209 221 201 215 193 203 202 199 189 177 185 149 179 147 168 168
442 456 473 479 490 500 502 502 498 310 483 345 452 466 406 386 369 397 326 298 269 228 228 215 221 210 210 195 207 195 184 182 191 181 190 182 166 150
359 407 465 478 490 499 507 516 530 300 488 540 444 451 406 384 369 265 280 299 274 248 210 234 217 216 203 205 191 206 196 188 174 181 182 194 160 145
Wind_Speed
71 79 59 74 65 77 69 65 68 68 70 68 75 61 77 50 59 98 64 108 106 107 97 74 89 44 71 68 55 58 49 44 34 36 50 33 34 38
84 84 79 67 74 78 68 81 66 77 81 69 58 75 75 58 63 125 111 70 99 88 105 98 73 81 71 66 52 56 51 48 36 37 42 40 46 43
106 68 79 94 78 86 77 82 65 68 71 72 84 52 63 59 81 99 119 114 102 100 103 102 83 76 65 75 55 59 58 56 45 38 45 28 27 34
104 89 104 106 79 83 93 86 91 65 83 65 94 67 79 104 118 134 103 71 105 110 110 101 95 80 90 61 74 59 63 58 46 49 44 35 27 35
116 120 107 99 93 102 94 108 92 71 71 69 62 97 97 107 72 132 112 120 110 104 114 111 94 78 92 82 64 59 62 64 53 52 44 41 28 23
131 120 120 113 109 100 100 91 101 63 75 61 84 107 76 96 64 77 137 120 78 112 110 117 103 95 93 84 69 73 71 54 47 54 48 41 31 45
109 104 103 99 97 96 93 89 87 85 67 87 107 97 110 87 67 109 112 130 124 110 119 117 100 87 82 90 76 74 79 58 65 43 50 43 34 46
95 94 92 87 85 84 88 87 84 81 78 78 118 117 112 105 70 94 128 133 131 99 110 109 120 109 99 95 72 81 77 66 60 64 49 51 31 37
94 92 90 87 84 81 81 77 76 80 77 76 76 104 122 118 74 72 141 143 69 131 111 122 116 118 107 99 86 72 72 65 67 63 65 43 43 54
59 65 70 65 71 83 76 75 75 75 81 77 79 117 113 112 98 80 143 146 142 126 136 116 123 120 114 94 98 90 94 72 68 60 59 50 42 33
53 53 53 57 53 56 66 73 68 74 83 83 83 79 116 116 87 80 102 127 74 110 133 117 122 122 120 113 88 102 95 91 87 75 67 51 50 45
48 47 49 50 52 55 59 55 55 68 79 80 87 91 94 91 108 86 106 149 151 146 116 135 127 108 120 114 104 109 86 81 96 68 62 68 70 50
47 46 47 48 49 51 56 55 52 56 65 82 91 94 98 95 100 89 118 118 146 150 127 110 115 126 126 108 113 101 87 85 90 85 74 66 62 49
46 47 48 49 50 51 52 51 65 56 59 62 94 95 101 100 98 85 125 156 143 149 141 130 139 121 116 110 103 106 111 82 89 56 58 79 67 50
41 42 45 47 48 49 50 49 48 42 50 55 61 95 102 106 101 88 125 156 163 159 154 137 145 133 138 111 112 108 102 91 91 65 72 67 56 61
33 34 35 37 40 42 41 45 32 43 46 58 56 77 78 108 115 119 133 160 152 156 140 155 148 143 132 133 123 96 85 75 92 92 85 73 71 68
30 30 33 35 37 38 36 38 33 44 47 58 68 63 100 110 113 108 141 161 156 158 158 158 155 129 70 115 123 124 111 89 107 94 80 79 75 60
28 28 29 31 33 36 36 37 37 47 67 48 52 58 101 110 116 139 145 167 147 162 162 156 154 145 96 128 118 126 117 109 94 94 87 81 79 70
27 24 27 28 31 33 33 34 36 41 75 77 51 64 103 112 114 140 136 167 158 165 150 116 137 136 132 137 119 91 98 86 83 96 99 84 90 90
21 20 21 24 27 29 31 33 36 39 69 45 71 57 104 110 114 120 138 152 165 144 162 153 144 155 145 132 136 130 124 99 101 96 95 93 97 81
18 16 17 19 21 25 28 31 33 36 73 76 46 75 103 108 114 113 142 146 169 160 138 160 123 155 106 135 132 129 115 93 100 94 104 95 90 80
16 15 13 14 16 19 24 28 32 53 46 75 68 77 102 108 113 109 139 147 163 151 162 153 157 145 139 115 134 121 106 107 116 110 110 108 97 87
7 8 10 9 11 14 18 22 25 55 44 39 68 79 99 106 110 75 134 146 159 168 136 167 153 150 130 140 123 126 127 121 108 110 109 111 92 87
Wind_Direction
250 247 265 285 281 248 252 236 271 235 235 236 228 226 219 245 230 226 242 231 232 235 238 235 243 231 231 243 246 238 245 245 242 251 263 264 275 283
253 263 271 271 283 280 262 238 228 233 237 229 227 238 228 247 234 219 226 240 232 232 234 240 229 242 239 242 235 242 240 243 240 253 251 258 269 276
284 263 257 280 276 267 260 275 231 239 229 234 229 225 224 236 227 219 222 226 230 231 230 236 234 236 222 239 232 246 244 238 243 239 255 253 247 266
280 259 278 279 262 266 238 266 269 232 229 226 228 239 219 218 207 208 228 234 226 229 230 234 235 234 234 224 244 234 235 238 234 249 252 236 245 258
280 277 270 265 260 270 268 269 262 239 234 233 233 221 221 216 224 204 221 220 222 227 229 232 234 229 235 240 226 231 243 240 243 236 251 250 236 236
275 271 271 269 269 267 266 259 261 227 247 231 231 227 216 215 230 220 209 218 227 224 227 229 229 232 234 234 230 228 236 234 223 244 249 250 245 254
274 273 272 270 269 267 264 260 257 249 230 239 223 230 224 216 225 212 215 214 217 221 226 228 228 230 222 234 228 233 229 222 242 217 248 230 238 252
272 269 269 266 264 262 257 254 253 249 242 236 220 225 217 221 221 214 204 211 216 222 225 227 227 230 231 234 223 222 233 229 233 235 217 228 217 232
273 271 269 266 262 259 257 252 248 242 237 231 226 217 217 219 218 217 202 208 229 215 223 225 226 228 231 229 224 219 225 223 221 236 237 232 229 251
274 267 262 262 255 257 251 249 245 240 233 228 219 223 218 219 216 223 201 203 209 219 218 224 226 228 230 227 230 230 230 221 214 223 219 216 222 214
271 268 265 262 258 256 249 242 244 234 228 224 215 216 220 218 209 208 206 213 216 222 217 223 225 227 228 230 225 225 232 232 235 233 225 224 238 212
268 265 261 258 254 253 251 250 247 233 223 220 214 207 207 208 210 203 198 202 206 212 220 218 224 223 225 227 225 225 226 224 235 227 237 240 235 212
271 267 264 261 256 255 251 248 245 238 231 218 212 205 204 204 201 200 196 200 209 209 220 222 222 222 224 225 228 227 225 227 235 227 238 223 221 231
270 267 266 264 261 257 253 252 226 241 234 229 211 204 202 202 200 202 195 196 207 210 214 220 221 224 224 224 226 223 229 224 224 217 205 229 223 210
273 268 264 263 260 258 255 252 248 217 237 229 222 203 200 200 198 202 189 199 200 205 209 218 219 223 225 225 227 227 229 230 232 219 237 209 221 207
281 274 267 263 260 257 249 252 220 240 229 216 219 210 208 199 194 193 186 198 203 206 214 214 218 221 223 224 227 225 222 208 237 231 234 214 220 245
276 269 263 258 254 251 244 245 224 224 222 219 214 213 197 197 195 195 187 198 202 204 207 212 215 223 219 224 227 227 227 228 232 236 227 212 231 244
281 271 259 251 247 246 243 238 232 215 202 217 214 213 195 198 195 192 188 194 206 203 205 210 213 219 223 224 225 225 230 230 226 233 235 215 231 243
238 275 264 253 243 239 237 234 224 220 199 197 210 206 193 195 195 195 190 195 201 201 210 220 216 221 221 220 225 222 224 218 227 230 238 213 232 246
299 285 268 255 245 238 235 226 221 217 196 210 199 206 192 195 195 195 189 194 199 209 206 211 217 216 221 219 223 226 225 227 230 219 230 230 241 245
308 294 276 260 246 236 230 222 216 212 196 197 202 197 191 194 196 194 190 195 198 204 214 210 219 215 223 220 221 224 226 227 225 224 237 220 225 230
321 311 289 268 249 235 230 222 212 207 201 198 195 195 191 193 197 195 193 195 199 205 206 213 213 217 217 222 219 222 226 227 228 232 230 234 224 217
345 15 314 284 250 235 226 223 217 204 198 199 194 193 191 193 197 200 196 192 200 202 213 210 213 214 220 219 223 215 221 226 220 233 235 231 222 231